GFSSW_sfc_dewp_021.txt.gz
Dewpoint
55 55 55 55 56 56 56 56 56 57 57 58 58 58 59 59 58 52 39 45 49 75 74 54 52 48 50 50 49 47 41 35 30 32 34 39 40 44 48 48 50 51 55 58 61
54 55 55 55 55 55 56 56 56 56 56 57 58 58 58 59 46 32 57 70 73 74 55 45 42 45 44 45 47 44 49 38 33 38 37 38 38 44 45 48 50 51 55 59 61
54 54 54 55 55 55 55 56 56 56 56 56 57 57 58 57 38 23 67 69 73 71 42 40 39 42 40 38 39 39 43 36 34 37 39 39 39 42 45 45 48 51 56 58 59
53 54 54 54 54 55 55 55 56 55 56 56 56 57 58 47 23 36 69 68 73 53 44 37 36 36 38 31 31 36 43 37 37 36 38 38 41 38 41 43 47 52 56 58 58
53 53 53 53 54 54 54 55 55 55 55 55 56 57 53 33 26 42 68 66 53 48 36 32 31 29 33 25 29 33 35 33 31 36 36 38 41 39 38 43 47 53 56 57 57
53 53 54 54 53 54 54 55 55 54 55 55 56 57 45 26 20 33 31 44 38 38 33 26 27 26 25 26 27 30 31 29 29 32 37 38 40 42 41 46 49 54 55 56 56
53 53 53 53 53 53 54 54 53 53 55 57 57 54 37 29 19 21 35 33 30 33 26 24 19 19 20 22 26 28 28 33 32 33 36 38 39 40 44 49 50 53 54 54 55
52 53 54 53 53 53 53 53 53 54 58 58 58 51 34 27 28 22 25 25 28 29 30 23 18 18 20 23 24 27 30 28 31 33 37 38 37 41 46 47 50 51 53 54 55
53 53 53 53 53 52 51 52 53 57 58 58 55 47 33 43 30 25 23 24 26 27 32 24 20 17 20 20 23 27 26 28 31 34 39 39 47 42 46 45 46 51 51 53 55
53 53 53 52 52 51 51 52 53 58 58 54 50 43 36 29 29 31 32 29 24 26 25 24 19 15 17 20 22 27 26 28 35 33 39 38 43 43 47 45 43 48 50 52 53
52 52 52 51 51 50 48 33 40 47 47 37 34 29 27 27 32 29 31 28 24 24 18 18 13 13 17 22 25 28 29 28 29 32 36 39 39 43 47 47 45 44 49 50 52
52 52 52 51 50 49 46 23 25 20 17 17 18 21 24 25 24 26 31 21 24 20 17 15 12 12 16 20 22 25 28 29 29 33 34 37 37 42 46 48 48 46 47 49 50
52 52 51 50 49 45 22 27 24 20 18 14 13 13 13 15 19 20 29 21 18 20 13 9 8 10 13 18 21 23 26 28 27 34 37 37 38 38 42 47 49 48 47 48 49
52 52 51 49 40 27 24 29 22 20 19 14 15 15 15 15 16 19 23 25 17 17 15 10 8 7 10 15 19 22 25 26 27 38 37 35 33 39 39 41 46 49 49 47 49
52 51 50 48 38 28 22 22 20 24 15 19 18 22 22 19 23 19 20 26 21 18 17 15 10 9 10 11 18 21 26 28 27 28 34 33 31 35 38 38 40 45 48 48 47
52 51 49 37 37 34 28 24 23 21 17 16 22 23 25 22 23 23 20 24 25 22 18 15 13 10 7 10 14 18 25 27 26 27 30 33 34 33 37 38 38 40 46 49 48
50 49 47 40 27 27 26 20 13 13 17 16 18 20 22 22 22 24 21 19 20 22 22 19 15 9 8 10 14 17 21 24 24 24 24 33 31 41 34 37 37 37 39 46 50
49 46 44 35 35 34 30 15 15 14 15 13 14 19 18 16 18 20 21 17 19 20 18 19 17 16 10 10 13 16 18 23 27 23 23 28 31 32 37 34 36 36 34 39 49
48 33 30 28 35 33 26 8 12 15 13 12 13 15 18 14 13 19 21 18 18 19 20 20 21 17 13 11 9 14 18 20 22 24 23 24 29 31 35 34 35 35 33 33 45
42 37 28 29 37 34 23 18 13 9 9 10 14 16 17 16 15 17 20 20 17 17 19 22 21 19 13 13 9 10 16 20 23 29 28 24 27 27 35 35 33 33 31 33 37
41 23 34 36 37 34 23 17 15 11 9 8 12 14 15 16 17 17 16 18 17 16 18 18 21 21 20 18 15 9 11 20 21 24 23 23 26 28 35 36 34 33 33 32 35
34 25 32 35 28 26 22 23 24 14 11 6 7 13 18 14 14 15 17 18 16 18 17 20 20 23 21 18 15 11 13 17 26 31 25 24 22 26 28 30 31 32 31 32 33
33 29 26 25 19 14 19 19 18 16 16 12 6 8 13 16 21 17 18 17 17 19 21 21 21 22 24 18 18 17 14 9 15 22 34 25 25 31 29 30 31 31 31 34 34
36 25 23 27 27 21 19 20 20 22 17 17 14 10 8 12 17 20 18 17 18 20 52 36 22 25 21 24 19 18 14 12 10 19 23 24 28 30 30 32 32 33 33 34 35
35 28 25 26 26 29 33 32 29 31 31 27 22 16 11 11 13 14 16 19 17 33 27 27 29 27 24 23 22 16 11 10 12 17 20 22 26 29 31 32 34 33 34 34 36
39 33 33 30 29 27 27 24 16 17 28 31 28 33 22 14 13 13 15 22 21 19 22 29 30 31 27 22 20 19 18 15 14 11 14 17 21 26 29 31 34 33 33 34 34
43 42 37 31 26 24 19 24 28 30 28 31 36 38 35 29 31 30 24 16 19 26 28 29 28 31 28 27 26 23 23 22 21 20 19 18 22 24 27 32 35 42 37 36 36

GFSSW_sfc_dewp_024.txt.gz
Dewpoint
55 55 55 55 56 56 56 56 56 56 57 58 58 58 59 59 58 49 42 43 49 74 73 53 56 54 49 45 47 58 53 42 36 31 33 38 37 43 47 46 51 53 55 57 58
54 55 54 54 54 55 55 56 56 56 56 57 58 58 59 59 46 33 44 68 73 73 41 41 44 46 39 40 45 57 52 43 44 38 34 38 38 41 42 45 47 54 56 57 57
54 54 54 54 54 54 54 55 55 55 56 56 56 57 58 57 36 27 70 73 74 68 28 33 36 37 36 39 43 53 52 47 45 41 36 36 37 39 43 43 47 53 56 57 56
54 54 54 53 53 53 53 54 54 55 55 55 56 57 58 47 24 29 68 72 74 47 34 31 33 34 36 37 38 48 47 45 40 36 39 36 37 37 43 43 47 54 57 58 56
53 53 54 54 53 54 54 54 55 54 54 55 56 57 50 34 31 34 71 68 51 43 34 34 32 34 33 37 35 32 45 42 32 33 36 38 38 36 39 44 47 53 56 57 57
52 53 54 54 54 54 54 54 54 54 54 55 56 57 45 23 25 30 36 46 31 38 33 31 31 31 31 34 30 28 30 32 29 29 32 39 39 37 38 43 47 51 54 55 56
53 53 54 54 54 53 54 54 53 53 54 56 59 53 34 24 28 37 28 25 32 32 28 27 27 27 28 27 29 26 27 28 28 29 32 37 38 38 40 43 47 50 53 54 55
54 54 53 53 53 53 53 52 53 53 55 59 58 50 32 21 26 27 21 27 30 28 29 25 25 21 22 24 24 23 25 26 28 29 32 34 39 37 41 41 45 50 51 53 54
53 53 53 53 53 52 52 52 52 54 57 58 56 50 33 42 31 26 22 20 24 22 26 27 22 18 17 19 20 22 22 25 29 30 33 32 45 45 43 41 44 48 50 51 54
53 53 53 53 52 51 51 51 53 55 57 53 50 45 42 30 29 26 23 18 18 22 21 25 22 17 15 18 18 21 22 25 29 31 32 34 47 45 44 41 43 45 49 51 52
53 52 52 52 51 50 47 40 38 42 47 42 37 29 23 32 27 27 25 21 24 23 20 24 19 17 16 19 22 21 24 25 29 36 32 39 51 52 51 43 39 44 46 48 51
53 52 52 52 51 49 46 32 24 19 16 15 20 30 35 29 27 27 26 26 24 20 21 17 17 15 15 17 20 22 24 27 29 39 38 34 45 49 47 45 42 42 45 47 49
52 52 52 51 49 45 28 20 26 20 15 14 12 11 22 31 25 24 25 26 21 19 19 15 13 10 9 15 20 22 23 27 29 32 33 32 33 35 42 45 45 44 44 45 48
52 52 51 50 41 32 27 27 18 16 15 15 13 11 9 14 15 19 21 26 18 18 20 16 12 10 7 11 18 21 22 24 25 30 31 36 30 41 40 45 44 43 44 44 47
52 52 51 50 39 35 28 24 20 19 15 16 13 14 10 10 12 12 15 22 24 15 16 17 11 8 7 8 16 21 23 23 23 26 34 39 34 38 42 43 44 43 43 43 46
51 51 50 40 37 37 33 25 21 16 16 15 18 17 13 10 10 18 13 18 24 21 15 15 14 8 7 6 10 18 20 22 22 25 29 35 35 37 40 43 42 43 44 47 46
51 50 48 42 32 29 30 24 13 13 19 16 17 20 18 15 11 20 17 15 17 23 21 18 14 12 7 7 8 10 15 20 22 24 24 31 37 40 40 41 40 43 45 46 48
49 47 45 39 37 37 32 20 17 18 16 16 14 18 19 19 16 14 21 15 16 20 19 19 16 13 12 11 9 9 12 20 25 23 23 26 26 36 42 41 42 45 46 43 47
48 39 36 29 31 33 28 19 17 19 18 15 15 15 17 18 18 19 21 20 16 18 23 19 19 16 13 9 8 10 12 12 16 22 22 23 27 29 39 38 43 41 39 38 47
42 39 38 34 29 32 26 24 22 17 16 15 15 16 16 16 18 16 19 20 18 16 19 20 21 18 15 14 9 9 12 11 14 23 26 24 30 31 40 43 43 39 38 36 42
42 33 30 29 30 31 27 23 24 23 22 18 16 14 13 15 16 17 14 17 19 16 16 16 22 19 20 19 16 11 9 11 12 18 22 25 27 33 39 43 42 40 39 37 34
35 29 27 32 26 26 24 24 29 25 25 22 20 16 14 12 15 16 17 16 16 19 17 17 17 22 18 19 16 13 13 13 16 28 23 25 26 27 34 38 41 39 39 37 39
34 30 29 26 22 20 23 18 17 19 22 22 22 19 16 12 18 16 19 16 16 17 21 22 18 22 20 16 19 17 15 10 9 12 30 24 25 32 39 36 38 38 38 43 45
36 26 24 23 24 21 22 28 26 23 23 20 26 25 21 17 16 19 18 17 16 16 51 32 19 26 18 24 21 23 17 15 10 15 19 24 29 31 37 40 41 41 40 42 52
35 30 28 25 24 24 29 34 29 29 28 28 29 30 29 30 18 13 14 15 17 34 27 23 31 27 21 18 21 20 17 15 18 21 20 20 28 32 33 39 41 43 45 45 50
39 31 34 31 29 25 24 23 23 23 29 29 26 30 34 34 35 33 31 27 22 23 22 28 31 30 24 18 19 21 17 15 16 16 17 18 21 28 33 36 40 40 38 44 47
39 45 42 36 28 22 19 19 30 27 31 33 32 36 34 34 38 36 33 31 29 27 30 31 27 34 28 23 22 21 24 22 16 16 16 19 25 31 31 33 39 51 46 45 44

GFSSW_sfc_dewp_030.txt.gz
Dewpoint
54 54 54 54 54 54 54 55 55 55 55 55 56 56 58 58 58 55 41 39 50 70 73 69 65 61 63 64 61 61 54 48 48 43 46 54 55 58 57 58 58 60 60 62 63
54 54 53 53 54 54 54 54 54 54 55 55 55 56 57 58 54 45 46 62 65 71 55 60 58 57 52 54 60 55 51 47 48 45 44 51 54 55 56 58 58 59 61 62 63
53 53 53 53 54 54 54 54 54 54 54 54 55 56 57 57 44 25 66 65 66 71 48 45 46 51 49 47 55 55 50 49 47 47 46 52 55 56 56 56 57 59 61 62 63
53 53 53 53 53 53 54 54 54 54 54 54 55 56 58 55 9 24 70 74 66 59 47 40 30 24 30 34 50 49 48 45 43 44 41 52 53 55 55 54 57 60 62 62 62
53 53 53 53 53 53 54 54 54 53 53 53 54 56 53 43 34 22 67 70 62 53 44 38 30 24 27 30 48 48 46 45 44 42 41 41 44 53 52 55 58 60 62 61 61
54 54 54 54 54 54 54 54 54 54 53 53 54 55 50 17 17 24 39 53 48 43 41 36 30 27 28 31 41 48 46 45 43 39 41 38 42 46 54 56 57 59 60 60 62
54 54 54 53 54 54 54 53 54 53 53 54 54 54 49 19 22 26 40 44 45 40 35 36 32 31 31 29 31 32 41 45 44 41 40 39 45 51 55 56 54 54 58 61 62
53 54 53 53 53 53 53 53 53 53 54 55 55 55 45 37 33 26 23 26 40 40 37 34 32 30 28 27 24 21 24 23 28 41 40 38 42 53 55 55 54 54 55 57 60
53 53 53 53 53 52 52 52 53 53 54 56 55 51 41 50 42 33 26 23 30 38 32 33 30 27 26 23 19 20 17 19 21 29 40 42 42 51 55 55 55 55 55 56 56
53 53 53 53 52 51 51 51 51 53 55 56 53 46 40 32 40 30 26 23 24 24 29 27 27 24 21 19 17 17 18 19 21 26 39 41 40 47 54 55 55 55 56 56 56
53 53 53 52 51 50 48 45 29 30 48 42 44 42 33 33 36 31 27 26 23 25 24 23 19 19 23 20 18 17 18 19 21 25 41 39 39 42 51 53 54 54 55 55 55
53 53 53 52 51 50 47 39 37 29 23 21 29 30 37 38 37 37 29 25 22 19 19 19 18 21 23 21 18 16 15 16 20 23 38 42 39 40 47 50 52 53 53 54 55
53 53 52 51 50 43 36 31 34 32 18 16 16 17 19 30 32 34 30 22 21 16 15 14 18 21 22 21 19 16 14 15 19 24 41 42 43 44 43 46 49 51 52 53 53
53 53 52 50 39 42 38 36 35 33 15 15 13 13 15 15 17 24 31 21 19 16 15 16 20 20 19 20 20 16 17 16 19 23 31 39 36 44 44 41 43 48 50 51 53
53 52 51 50 44 42 36 37 36 23 17 22 16 15 13 11 15 18 23 25 22 22 21 22 21 20 19 19 21 17 18 19 19 21 29 39 37 39 44 44 43 45 48 50 51
53 52 51 44 42 42 39 38 31 15 15 18 16 10 11 10 12 22 26 30 26 25 23 21 22 21 19 20 20 18 14 15 21 21 28 26 36 36 39 43 44 46 46 49 50
52 51 49 45 40 38 41 34 12 14 19 21 19 19 10 8 8 13 27 27 23 22 22 23 21 18 20 18 16 14 10 10 11 13 17 28 34 33 38 44 44 44 45 46 49
50 49 47 41 44 44 37 24 16 17 16 22 23 21 16 10 7 8 14 27 26 19 21 21 21 19 16 17 16 10 7 9 10 15 17 22 30 33 37 42 46 45 46 44 46
49 42 40 39 37 40 33 26 19 20 24 24 23 21 18 20 22 14 6 13 24 17 16 20 20 24 21 17 16 13 7 7 10 24 19 21 28 31 39 40 45 45 46 45 44
45 41 40 40 38 37 32 29 25 26 26 26 23 23 23 23 23 23 20 12 8 13 15 16 19 21 21 19 16 12 10 10 7 4 6 14 21 24 30 39 42 45 45 45 45
43 37 36 33 31 33 29 28 26 26 27 25 24 23 23 23 23 23 23 20 18 15 13 13 15 15 23 20 17 14 8 19 5 6 5 9 10 21 25 35 40 44 44 44 44
38 32 35 33 27 28 29 27 31 26 27 26 24 23 23 27 25 21 23 23 24 25 20 16 12 12 13 18 21 18 13 9 9 8 14 7 9 21 22 33 42 42 43 43 44
37 35 35 32 25 27 31 30 30 29 28 30 27 30 30 28 29 26 30 30 36 33 32 33 15 11 11 12 14 17 15 11 11 12 9 14 11 19 20 37 43 43 43 45 45
36 31 29 30 33 31 33 33 31 32 28 27 27 32 33 32 31 31 32 35 35 35 44 34 29 16 14 14 15 16 16 13 7 8 8 11 14 14 23 35 44 43 43 44 44
36 32 33 30 31 31 29 32 29 30 28 29 29 28 35 33 34 32 33 33 33 38 34 33 27 23 23 19 15 18 18 16 10 8 7 8 10 12 13 29 41 43 43 43 40
38 35 35 34 34 29 28 27 30 35 32 30 30 30 29 33 33 30 30 30 32 34 32 34 29 27 27 24 15 14 16 18 15 12 8 11 12 14 14 27 33 41 41 41 39
44 44 41 34 30 28 26 27 27 32 34 33 30 32 30 29 29 31 34 31 32 32 31 33 30 27 25 24 17 15 17 18 20 19 14 12 15 23 24 33 36 42 42 40 39

GFSSW_sfc_dewp_033.txt.gz
Dewpoint
54 54 54 54 54 54 55 55 55 55 55 55 55 56 57 58 57 55 31 36 47 76 76 72 68 67 66 65 64 63 53 48 48 51 52 56 57 58 59 58 58 59 60 62 64
54 54 53 54 54 54 54 54 55 55 55 55 55 55 56 57 54 48 47 62 68 75 70 68 63 66 63 63 60 55 51 46 48 47 53 56 57 57 58 57 58 59 60 63 65
53 53 53 53 53 54 54 54 54 54 54 54 54 55 56 57 39 19 67 63 67 74 63 61 60 59 52 56 59 55 52 49 48 46 54 55 56 56 57 55 58 59 60 62 64
53 53 53 53 53 53 53 54 54 54 54 54 54 55 56 54 6 19 72 73 68 57 48 51 48 51 47 46 55 52 51 51 44 51 52 54 55 55 56 55 58 60 61 62 63
53 53 53 53 53 53 53 53 53 53 53 54 54 54 52 41 25 15 67 69 63 51 42 38 33 31 26 29 44 50 46 45 45 43 52 55 55 55 56 57 59 61 61 61 62
54 54 54 54 54 54 54 54 54 53 53 54 54 54 48 9 14 27 34 56 54 48 41 38 34 29 26 28 39 45 44 42 43 43 51 54 54 55 56 57 60 61 61 61 62
54 54 54 54 54 54 54 53 53 53 53 54 54 52 50 16 19 24 34 42 51 43 40 39 33 27 26 27 31 34 37 40 45 45 44 47 47 53 55 57 59 60 61 62 62
54 54 54 54 54 54 53 52 53 53 54 55 55 52 38 38 38 28 23 21 39 40 34 36 34 30 29 29 26 22 25 22 25 41 42 41 40 50 56 56 58 60 60 61 61
54 54 54 54 53 53 52 52 53 54 56 56 53 50 34 47 45 41 27 21 32 38 38 36 32 29 28 26 22 20 21 20 22 32 39 40 42 53 55 56 57 59 60 60 61
54 53 53 53 53 52 51 52 51 54 56 55 53 43 40 27 42 34 29 24 26 32 34 33 29 25 24 22 20 20 17 18 20 25 38 40 43 53 55 55 55 57 59 60 61
54 53 53 53 52 50 49 43 31 30 39 40 43 39 34 33 38 35 27 23 23 24 25 27 25 25 25 22 22 19 18 18 21 32 40 40 42 53 54 54 53 53 56 58 60
53 53 53 52 51 51 43 31 33 33 29 29 28 27 31 34 29 29 25 21 22 20 23 22 22 25 24 25 21 18 18 17 19 22 28 33 41 52 54 54 54 54 54 55 56
53 52 52 52 50 42 39 34 35 34 25 20 20 20 20 27 29 27 26 24 23 20 20 21 22 22 22 22 20 19 17 17 17 25 33 40 41 47 53 54 55 55 55 55 55
53 52 52 51 38 43 35 36 36 36 18 18 15 15 19 29 27 28 34 24 21 20 18 17 19 19 20 20 21 19 20 19 18 20 18 39 36 42 48 52 52 54 55 55 55
52 52 51 50 43 41 33 38 39 25 19 25 16 16 15 16 16 25 30 24 19 20 17 17 16 16 18 18 22 20 22 19 21 18 21 26 34 38 43 47 48 50 53 54 55
52 51 50 45 43 42 40 40 29 15 16 19 17 13 13 12 11 20 24 27 23 19 19 18 22 15 17 21 19 23 21 16 20 18 18 17 30 29 41 42 43 45 50 52 53
51 49 48 45 40 40 41 33 13 14 20 21 22 23 22 10 10 18 20 23 22 20 18 17 15 21 21 19 21 19 15 15 11 14 13 15 26 22 35 42 42 43 44 50 51
49 48 46 41 42 44 37 24 14 17 17 25 25 24 20 23 16 20 23 21 24 22 20 21 22 20 20 20 18 17 16 15 9 11 12 20 22 23 34 38 43 43 44 45 50
48 44 42 40 40 40 32 24 18 20 25 25 24 21 23 24 24 24 22 24 26 22 19 21 21 24 22 19 19 16 14 15 9 25 14 19 23 31 33 36 39 43 44 45 47
45 41 39 41 39 37 31 27 25 27 26 26 23 24 22 22 23 22 23 21 21 27 21 19 20 22 22 21 18 17 12 8 8 7 7 10 18 22 32 31 39 41 44 45 46
39 35 36 35 35 34 29 29 28 27 27 25 24 24 23 23 24 22 22 26 32 31 27 18 17 17 21 20 19 16 13 14 9 9 7 6 8 20 28 34 38 42 45 45 46
36 30 33 35 25 28 30 31 32 28 27 26 26 24 25 28 27 24 22 27 35 35 32 32 17 15 17 21 21 18 14 11 10 6 10 7 9 18 23 26 34 39 44 46 47
34 33 38 36 30 30 29 32 33 31 30 27 27 29 32 30 25 31 32 34 33 33 37 37 29 13 11 18 15 19 18 13 11 11 9 8 10 18 20 23 33 38 42 45 47
36 31 32 32 34 32 30 29 33 35 31 29 28 35 33 33 31 30 30 34 31 31 42 35 29 24 16 14 16 14 17 17 11 10 10 11 13 18 18 22 29 42 44 45 46
39 32 32 29 30 32 29 29 30 35 35 32 29 31 34 30 34 32 30 31 30 37 33 33 30 28 27 27 26 22 15 14 14 14 12 13 12 13 16 23 29 36 44 45 45
38 36 37 33 33 30 29 27 29 31 34 33 34 29 30 32 32 29 30 30 30 33 29 33 30 30 28 26 25 21 19 16 15 16 13 11 13 16 16 19 21 24 36 44 44
43 43 40 36 31 30 27 28 27 29 33 35 31 30 30 31 33 33 31 33 32 32 29 30 31 29 27 27 26 21 20 18 16 17 17 14 14 15 15 19 19 24 34 40 43

GFSSW_sfc_dewp_036.txt.gz
Dewpoint
54 54 54 54 54 54 55 55 55 55 55 55 55 55 56 57 57 54 33 33 44 72 74 70 68 64 67 65 65 63 53 50 50 50 53 57 56 58 59 58 59 60 61 62 67
53 53 53 53 53 54 54 54 54 55 55 55 55 55 56 57 54 47 46 60 68 76 70 66 66 65 64 64 61 56 51 49 49 51 54 56 57 57 58 57 58 59 63 65 66
53 53 53 53 53 53 53 53 53 53 54 54 55 55 55 56 37 14 61 61 74 75 69 68 66 63 61 61 60 55 53 52 48 49 56 56 57 58 57 55 58 59 62 64 66
53 53 53 53 53 53 53 53 53 53 53 54 54 55 55 53 9 27 71 65 75 70 67 63 65 60 54 51 60 54 54 54 50 48 54 56 57 56 56 54 58 61 63 64 65
53 54 53 53 53 53 53 53 53 53 53 54 54 54 51 41 23 52 72 65 72 60 60 56 61 56 42 44 51 55 53 49 50 49 55 56 56 55 56 58 60 61 62 64 65
55 55 54 54 54 54 55 54 54 53 53 54 54 54 46 5 10 25 59 58 61 55 54 43 54 44 33 27 41 43 50 48 42 43 51 54 55 56 57 58 59 60 61 63 64
55 55 54 54 54 54 54 54 53 53 54 54 54 52 49 9 16 24 56 55 55 47 40 37 37 39 30 25 29 31 32 35 44 44 50 54 53 54 57 59 59 60 61 62 63
54 54 54 54 54 54 53 53 53 54 55 56 55 51 29 34 39 36 24 37 48 46 36 38 35 31 28 27 26 22 24 22 27 44 48 53 50 53 56 58 59 59 60 61 62
54 54 54 54 53 53 51 52 53 56 57 56 51 48 26 45 44 38 24 20 37 41 39 35 33 30 28 25 22 22 23 21 24 38 40 50 43 47 56 56 59 59 60 60 61
53 53 53 53 52 51 51 52 52 56 54 53 53 42 40 28 40 38 29 24 28 31 34 34 31 28 26 22 17 22 18 20 23 24 38 41 40 47 55 55 58 59 60 61 61
53 53 53 52 51 50 48 38 31 32 33 45 42 40 36 33 35 32 28 23 27 30 28 32 29 26 26 23 23 23 19 20 24 28 37 36 41 52 54 55 56 58 59 60 60
53 52 52 51 50 50 41 32 32 32 30 30 30 29 34 32 27 27 24 20 22 23 26 23 26 29 28 24 23 20 20 20 21 20 23 25 38 53 54 55 56 58 59 59 60
52 52 51 51 50 42 39 33 36 35 29 26 27 26 25 28 26 26 23 22 21 22 24 23 22 28 26 25 24 21 20 20 21 21 26 39 38 50 54 55 55 56 58 59 60
52 52 51 50 38 42 32 38 38 37 20 20 17 17 24 25 24 28 25 23 22 20 21 21 23 24 22 22 23 20 21 20 19 18 16 36 28 44 52 53 54 54 54 56 57
52 51 50 49 42 40 32 39 39 27 17 24 15 16 23 20 19 25 31 26 21 21 19 20 20 21 21 22 22 21 22 20 18 17 19 26 31 36 49 52 53 54 54 54 55
52 51 50 44 42 42 41 41 31 20 19 21 20 16 16 14 13 25 27 28 23 20 20 19 21 22 20 20 22 23 20 18 20 18 17 17 23 23 42 50 52 54 55 55 55
51 49 48 45 37 41 42 32 16 17 21 23 23 24 22 19 12 21 23 24 21 17 16 18 18 20 18 18 21 20 18 16 15 15 15 17 22 20 37 43 49 52 53 54 56
49 48 44 42 42 41 37 23 16 19 20 26 25 25 23 24 23 24 21 24 25 21 19 16 17 17 19 16 17 18 17 18 12 13 15 19 18 21 28 42 44 47 49 51 53
49 42 40 40 40 40 31 20 18 22 25 25 25 23 23 23 24 23 22 22 25 22 19 18 18 24 18 21 16 18 17 16 12 23 11 16 21 25 31 32 43 43 44 45 48
43 41 38 40 36 36 31 26 25 27 26 26 23 24 22 22 23 22 22 33 33 32 27 21 20 23 18 20 20 16 17 15 12 13 10 12 19 20 31 30 35 40 43 44 45
38 34 32 37 37 33 25 28 30 31 30 26 24 24 23 26 26 22 22 33 34 34 33 29 20 18 22 21 18 16 13 13 15 13 11 9 13 23 29 28 26 30 41 44 45
34 28 31 34 29 30 27 28 37 35 31 28 26 26 26 29 27 25 30 32 32 33 36 37 22 18 18 23 22 20 18 11 15 11 11 12 12 21 21 28 32 30 32 44 47
34 35 37 35 26 27 29 28 31 35 34 31 27 32 33 29 24 30 31 32 31 32 38 35 27 15 14 16 19 20 18 15 13 13 13 11 14 18 23 24 26 36 40 47 50
33 29 32 33 32 30 29 28 29 33 36 35 30 33 32 31 33 31 31 32 31 33 40 35 30 24 21 23 27 23 21 18 13 14 14 13 14 22 21 22 26 31 37 39 46
35 31 34 27 29 32 29 29 28 30 32 37 36 32 30 28 31 30 29 30 31 36 32 31 28 29 29 30 29 27 25 24 19 15 14 15 16 18 21 22 24 27 39 44 46
37 36 37 32 36 32 27 27 28 27 31 30 35 35 28 29 31 29 30 30 30 33 29 31 26 30 29 28 27 26 26 24 21 20 18 17 18 20 20 25 27 31 34 41 46
43 43 39 36 31 30 29 29 29 29 30 34 34 32 27 31 33 33 32 31 31 31 30 29 29 28 24 28 27 22 21 21 22 21 19 17 22 21 21 23 24 28 30 33 41